This is the latest recevied weather packets stored in our database for station/object KC0RKM-13. If no packets are shown the sender has not sent any weather packets the latest 10 day(s).
| Time | Temp. | Humidity | Pressure | Rain* | Wind** | Luminosity | Snow |
|---|---|---|---|---|---|---|---|
| 1788540604 | 32.78° C | 48% | 1013.3 hPa | 0 mm | - | - | - |
| 1788540003 | 33.33° C | 47% | 1013.2 hPa | 0 mm | - | - | - |
| 1788539403 | 32.22° C | 50% | 1013.4 hPa | 0 mm | - | - | - |
| 1788538803 | 32.22° C | 50% | 1013.2 hPa | 0 mm | - | - | - |
| 1788538204 | 31.67° C | 52% | 1013.3 hPa | 0 mm | - | - | - |
| 1788537603 | 31.11° C | 55% | 1013.4 hPa | 0 mm | - | - | - |
| 1788537004 | 30.56° C | 56% | 1013.7 hPa | 0 mm | - | - | - |
| 1788536403 | 31.11° C | 56% | 1013.7 hPa | 0 mm | - | - | - |
| 1788535803 | 30.56° C | 56% | 1013.8 hPa | 0 mm | - | - | - |
| 1788535221 | 30° C | 57% | 1013.8 hPa | 0 mm | - | - | - |
| 1788534603 | 30° C | 59% | 1013.8 hPa | 0 mm | - | - | - |
| 1788534004 | 29.44° C | 60% | 1013.9 hPa | 0 mm | - | - | - |
| 1788533404 | 29.44° C | 61% | 1013.7 hPa | 0 mm | - | - | - |
| 1788532804 | 28.33° C | 65% | 1013.7 hPa | 0 mm | - | - | - |
| 1788532204 | 27.78° C | 66% | 1013.9 hPa | 0 mm | - | - | - |
| 1788531603 | 27.78° C | 66% | 1013.9 hPa | 0 mm | - | - | - |
| 1788531003 | 27.22° C | 68% | 1014 hPa | 0 mm | - | - | - |
| 1788530404 | 26.67° C | 70% | 1014.1 hPa | 0 mm | - | - | - |
| 1788529804 | 26.67° C | 71% | 1014 hPa | 0 mm | - | - | - |
| 1788529204 | 26.11° C | 72% | 1014.1 hPa | 0 mm | - | - | - |
| 1788528604 | 26.11° C | 73% | 1014.1 hPa | 0 mm | - | - | - |
| 1788528004 | 25.56° C | 74% | 1014 hPa | 0 mm | - | - | - |
| 1788527403 | 25° C | 75% | 1014.1 hPa | 0 mm | - | - | - |
| 1788526803 | 25° C | 76% | 1013.9 hPa | 0 mm | - | - | - |
| 1788526203 | 24.44° C | 77% | 1013.9 hPa | 0 mm | - | - | - |
* Rain latest hour (hover to see other rain measurements)
** Current wind speed in m/s (hover to see current wind gust speed)